Volver al catálogo

STARLINK-4769

ActivoComunicacionesVLEO
NORAD 53843·PAYLOAD·🇺🇸 United States

Lanzado Sep 19, 2022 desde Cape Canaveral Space Force Station

Loading…

Próximos Pases (próximas 24 horas)

TLE

ActualizadoSource: CelesTrak SupGP

Época: Sep 14, 2026, 20:34 UTC

1 53843C 22114AB  26257.85743056 -.00021661  00000+0 -13583-2 0  2579
2 53843  53.1589 164.3740 0001535  90.6781  75.4654 15.08848630    11

Sigue STARLINK-4769 en tiempo real con AllMySat

Download on the App Store